Regional Weather Roundup
Issued by NWS

Home | Current Version | Previous Version | Text Only | Print | Product List | Glossary On
Versions: 1 2 3 4 5 6 7 8 9 10 11 12 13 14 15 16 17 18 19 20 21 22 23 24 25 26 27 28 29 30 31 32 33 34 35 36 37 38 39 40 41 42 43 44 45 46 47 48 49 50
028
ASUS43 KMKX 251800
RWRWI

WISCONSIN REGIONAL WEATHER ROUNDUP
NATIONAL WEATHER SERVICE MILWAUKEE/SULLIVAN WI
100 PM CDT MON JUL 25 2016

NOTE: "FAIR" INDICATES FEW OR NO CLOUDS BELOW 12,000 FEET WITH NO
SIGNIFICANT WEATHER AND/OR OBSTRUCTIONS TO VISIBILITY.

WIZ001-002-006>008-014>016-023>028-251900-
NORTHWEST WISCONSIN

CITY           SKY/WX    TMP DP  RH WIND       PRES   REMARKS
SUPERIOR ARPT  SUNNY     80  61  52 NW9G18    30.01S HX  81
ASHLAND        MOSUNNY   82  61  48 W10       30.01F HX  83
6HR MIN TEMP:  65; 6HR MAX TEMP:  82;

HAYWARD        MOSUNNY   79  57  46 VRB7      30.04F HX  80
6HR MIN TEMP:  62; 6HR MAX TEMP:  79;

SIREN          NOT AVBL
CUMBERLAND     PTSUNNY   77  59  53 NW9       30.06F
RICE LAKE      SUNNY     78  59  52 NW10      30.07S
CHETEK         MOSUNNY   80  62  54 NW5       30.05F HX  81
LADYSMITH      SUNNY     79  60  52 W9        30.06S HX  80
EAU CLAIRE     NOT AVBL
MENOMONIE      MOSUNNY   82  60  47 NW12      30.05F HX  82
NEW RICHMOND   SUNNY     80  59  48 NW6       30.06F HX  81
OSCEOLA        SUNNY     80  60  50 NW7       30.08F HX  81
$$

WIZ003>005-009-010-017-018-251900-
NORTH CENTRAL WISCONSIN

CITY           SKY/WX    TMP DP  RH WIND       PRES   REMARKS
MANITOWISH WTR MOSUNNY   76  58  54 NW8G18    30.02F
ARBOR VITAE    MOSUNNY   77  59  53 NW8G16    30.03S
WOODRUFF       MOSUNNY   77  59  53 NW8G16    30.03S
RHINELANDER    MOSUNNY   78  57  48 NW9       30.04S
6HR MIN TEMP:  65; 6HR MAX TEMP:  79;

EAGLE RIVER    MOSUNNY   76  54  45 W13G21    30.02S
LAND O LAKES   MOSUNNY   77  56  47 NW10G17   30.02F
PHILLIPS       PTSUNNY   75  61  61 W9        30.04S
TOMAHAWK       MOSUNNY   77  59  53 W8        30.04S
MEDFORD        MOSUNNY   76  60  58 NW12G22   30.05S
MERRILL        MOSUNNY   78  60  55 NW13G18   30.03F
$$

WIZ029-030-035-036-043>047-251900-
CENTRAL WISCONSIN

CITY           SKY/WX    TMP DP  RH WIND       PRES   REMARKS
WAUSAU         PTSUNNY   81  58  45 NW13      30.02R HX  81
6HR MIN TEMP:  65; 6HR MAX TEMP:  81;

MOSINEE        MOSUNNY   79  61  53 W14G20    30.04S HX  80
MARSHFIELD     SUNNY     80  61  52 W13       30.04S HX  81
6HR MIN TEMP:  65; 6HR MAX TEMP:  81;

STEVENS POINT  MOSUNNY   78  60  54 W9G18     30.03S
WAUPACA        SUNNY     84  60  44 W12G17    30.01S HX  84
WAUTOMA        PTSUNNY   82  64  54 W14       30.02S HX  83
6HR MIN TEMP:  68; 6HR MAX TEMP:  82;

WISC RAPIDS    SUNNY     83  59  44 N16G23    30.04S HX  83
6HR MIN TEMP:  66; 6HR MAX TEMP:  84;

CAMP DOUGLAS   NOT AVBL
$$

WIZ011>013-019>022-031-037>040-048>050-251900-
NORTHEAST WISCONSIN

CITY           SKY/WX    TMP DP  RH WIND       PRES   REMARKS
ANTIGO         SUNNY     77  58  51 NW13      30.03S
SHAWANO        SUNNY     83  63  51 W8        29.99S HX  84
OCONTO         SUNNY     82  61  48 W12G18    29.95S HX  82
STURGEON BAY   SUNNY     82  63  52 W14       29.96S HX  83
GREEN BAY      SUNNY     81  68  64 W13G20    29.98R HX  84
6HR MIN TEMP:  68; 6HR MAX TEMP:  81;

MANITOWOC      NOT AVBL
APPLETON       MOSUNNY   81  61  50 W13G18    29.99S HX  81
CLINTONVILLE   SUNNY     81  57  44 NW13G22   29.99S HX  81
OSHKOSH        MOSUNNY   82  64  54 NW9       30.00S HX  83
6HR MIN TEMP:  69; 6HR MAX TEMP:  82;

$$

WIZ032>034-041-042-053>061-251900-
SOUTHWEST WISCONSIN

CITY           SKY/WX    TMP DP  RH WIND       PRES   REMARKS
LA CROSSE      SUNNY     82  63  52 W9        30.04S HX  83
6HR MIN TEMP:  70; 6HR MAX TEMP:  83;

SPARTA         MOSUNNY   81  62  52 NW7       30.05F HX  82
VIROQUA        MOSUNNY   79  62  56 NW9       30.07S HX  80
BOSCOBEL       SUNNY     86  62  44 NW8       30.04F HX  86
6HR MIN TEMP:  67; 6HR MAX TEMP:  86;

PRAIRIE DU CHI SUNNY     82  59  46 NW14      30.04S HX  82
PLATTEVILLE    SUNNY     80  65  60 NW8       30.05F HX  81
$$

WIZ056-057-062-063-064-067-068-251900-
SOUTH CENTRAL WISCONSIN

CITY           SKY/WX    TMP DP  RH WIND       PRES   REMARKS
REEDSBURG      MOSUNNY   80  64  56 NW8       30.03F HX  82
BARABOO/DELLS  MOSUNNY   80  60  50 N10G16    30.04S HX  81
LONE ROCK      NOT AVBL
MINERAL POINT  PTSUNNY   81  64  57 N8        30.05F HX  82
MADISON        MOSUNNY   82  63  52 NW8       30.02F HX  83
6HR MIN TEMP:  71; 6HR MAX TEMP:  83;

MIDDLETON      SUNNY     82  63  51 N8        30.04S HX  83
WATERTOWN      PTSUNNY   82  65  56 W12       30.01F HX  83
MONROE         MOSUNNY   81  63  54 N5        30.04S HX  82
JANESVILLE     MOSUNNY   84  64  51 NW10      30.02R HX  86
$$

WIZ051-052-058>065-066-070>072-251900-
SOUTHEAST WISCONSIN

CITY           SKY/WX    TMP DP  RH WIND       PRES   REMARKS
MILWAUKEE      MOSUNNY   86  60  41 NW10      29.99S HX  86
6HR MIN TEMP:  75; 6HR MAX TEMP:  87;

WAUKESHA       SUNNY     81  61  50 W9        30.02S HX  81
MILWAUKEE/TIMM SUNNY     84  57  39 NW9G18    30.01S HX  83
RACINE         SUNNY     85  64  49 NE6       30.01S HX  86
6HR MIN TEMP:  73; 6HR MAX TEMP:  86;

BURLINGTON     SUNNY     83  63  52 N15       30.01S HX  84
KENOSHA        SUNNY     84  64  50 NW13G20   30.00S HX  85
6HR MIN TEMP:  72; 6HR MAX TEMP:  85;

FOND DU LAC    MOSUNNY   83  64  52 NW12      30.00S HX  84
6HR MIN TEMP:  69; 6HR MAX TEMP:  83;

SHEBOYGAN      SUNNY     81  61  50 W15G22    29.99S HX  82
6HR MIN TEMP:  70; 6HR MAX TEMP:  82;

WEST BEND      MOSUNNY   81  61  50 NW9       30.01S HX  81
JUNEAU         MOSUNNY   79  64  59 W8        30.03S HX  81
$$

LSZ147-162-251900-
LAKE SUPERIOR

STATION/POSITION TIME  TEMP    WIND        PRES    WAVE
                       AIR SEA DIR/SP/G            HT/PER
                 (UTC) (F)     (DEG/KT/KT) (MB)    (FT/S)
W MID LAKE BUOY  1650   63 59  250/ 14/ 16 1014.2R   2/ 4
DEVILS ISLAND    1700   67     240/ 16/ 18 1015.3F
SAXON HARBOR     1700   78      CALM  /  3 1015.9
$$

LMZ867-665-643>646-251900-
LAKE MICHIGAN

STATION/POSITION TIME  TEMP    WIND        PRES    WAVE
                       AIR SEA DIR/SP/G            HT/PER
                 (UTC) (F)     (DEG/KT/KT) (MB)    (FT/S)
CHAMBERS ISLAND  1700   80     230/  2/  6 1013.9R
S GREEN BAY BUOY 1730   76 74  270/ 10/ 14   N/A
N MID LAKE BUOY  1650   70 69  260/  8/  8 1012.8R   2/ 5
NORTHPORT PIER   1700   79     300/  7/ 12 1013.5
SISTER BAY       1721   82     300/  9/ 10   N/A
ALGOMA LAKESHORE 1743          320/ 13/ 19   N/A
KEWAUNEE LAKESHO 1700   80     300/  7/ 16 1014.1S
SHEBOYGAN LAKESH 1700   79     310/ 12/ 14 1015.1R
PORT WASHINGTON  1700   84     320/  7/ 11 1016.3R
ATWATER BUOY     1700   69 57  100/  4/  6 1017.3
MILWAUKEE LAKESH 1710   73     100/  4/  5   N/A
S MID LAKE BUOY  1650   72 72  330/  8/ 10 1014.9F   2/ 4
KENOSHA   LAKESH 1700   80     310/  6/ 14 1015.2S
$$

TC  - TEMPERATURE IN CELSIUS
VSB - VISIBILITY IN STATUTE MILES
WCI - WIND CHILL INDEX
HX  - HEAT INDEX





USA.gov is the U.S. government's official web portal to all federal, state and local government web resources and services.